Weather History for Paso Robles, CA

Change the Weather History Date:

Tuesday, January 21, 2014

  Actual Average Record
Temperature  
Mean Temperature 53 °F 48 °F  
Max Temperature 75 °F 60 °F 75 °F (1994)
Min Temperature 31 °F 35 °F 20 °F (1963)
Degree Days  
Heating Degree Days 12 17  
Month to date heating degree days 270 382  
Since 1 July heating degree days 1305 1506  
Cooling Degree Days 0 0  
Month to date cooling degree days 0 0  
Year to date cooling degree days 0 0  
Growing Degree Days 3 (Base 50)    
Moisture  
Dew Point 25 °F    
Average Humidity 38    
Maximum Humidity 61    
Minimum Humidity 14    
Precipitation  
Precipitation 0.00 in 0.09 in 0.86 in (1997)
Month to date precipitation 0.00 1.87  
Year to date precipitation 0.00 1.87  
Since 1 July precipitation 0.46 5.86  
Sea Level Pressure  
Sea Level Pressure 30.19 in    
Wind  
Wind Speed 4 mph (East)    
Max Wind Speed 17 mph    
Max Gust Speed 21 mph    
Visibility 7 miles    
Events      
T = Trace of Precipitation, MM = Missing Value Source: NWS Daily Summary

Daily Weather History Graph

Daily Weather History Graph

Search for Another Location

Airport:

Trip Planner

Search our weather history database for the weather conditions in past years. The results will help you decide how hot, cold, wet, or windy it might be!

Date:

Astronomy

Jan. 21, 2014 Rise Set
Actual Time 7:09 AM PST 5:18 PM PST
Civil Twilight 6:41 AM PST 5:46 PM PST
Nautical Twilight 6:10 AM PST 6:17 PM PST
Astronomical Twilight 5:40 AM PST 6:47 PM PST
Moon 10:43 PM PST (1/21) 9:53 AM PST (1/21)
Length of Visible Light 11h 04m
Length of Day
10h 09m
Waning Gibbous, 73% of the Moon is Illuminated
Jan 21
Waning Gibbous
Jan 23
Last Quarter
Jan 30
New
Feb 6
First Quarter
Feb 14
Full

Hourly Weather History & Observations

Time (PST) Temp. Dew Point Humidity Pressure Visibility Wind Dir Wind Speed Gust Speed Precip Events Conditions
12:53 AM 39.0 °F 23.0 °F 53% 30.23 in 6.0 mi North - - N/A   Haze
1:53 AM 39.9 °F 26.1 °F 58% 30.23 in 6.0 mi North - - N/A   Haze
2:53 AM 37.0 °F 23.0 °F 57% 30.23 in 6.0 mi North - - N/A   Haze
3:53 AM 36.0 °F 23.0 °F 59% 30.23 in 6.0 mi North - - N/A   Haze
4:53 AM 36.0 °F 23.0 °F 59% 30.22 in 6.0 mi North - - N/A   Haze
5:53 AM 34.0 °F 21.0 °F 59% 30.23 in 6.0 mi North - - N/A   Haze
6:53 AM 33.1 °F 21.9 °F 64% 30.25 in 6.0 mi North - - N/A   Haze
7:53 AM 33.1 °F 21.9 °F 64% 30.25 in 4.0 mi Calm Calm - N/A   Haze
8:53 AM 36.0 °F 21.9 °F 57% 30.26 in 4.0 mi Calm Calm - N/A   Haze
9:53 AM 44.1 °F 24.1 °F 45% 30.26 in 6.0 mi Calm Calm - N/A   Haze
10:53 AM 52.0 °F 25.0 °F 35% 30.23 in 6.0 mi Calm Calm - N/A   Haze
11:53 AM 59.0 °F 25.0 °F 27% 30.19 in 7.0 mi Calm Calm - N/A   Clear
12:53 PM 66.0 °F 24.1 °F 20% 30.15 in 8.0 mi Calm Calm - N/A   Clear
1:53 PM 69.1 °F 24.1 °F 18% 30.12 in 8.0 mi Calm Calm - N/A   Clear
2:53 PM 73.0 °F 21.9 °F 15% 30.12 in 10.0 mi NNE 3.5 mph - N/A   Clear
3:53 PM 71.1 °F 28.0 °F 20% 30.12 in 7.0 mi East 12.7 mph - N/A   Clear
4:53 PM 66.9 °F 28.0 °F 23% 30.14 in 7.0 mi East 10.4 mph - N/A   Clear
5:53 PM 63.0 °F 28.9 °F 28% 30.15 in 8.0 mi ESE 12.7 mph - N/A   Clear
6:53 PM 61.0 °F 28.9 °F 30% 30.16 in 8.0 mi East 10.4 mph - N/A   Clear
7:53 PM 59.0 °F 28.9 °F 32% 30.16 in 8.0 mi SSE 4.6 mph - N/A   Clear
8:53 PM 57.0 °F 27.0 °F 32% 30.16 in 8.0 mi East 3.5 mph - N/A   Clear
9:53 PM 53.1 °F 27.0 °F 37% 30.18 in 8.0 mi SE 6.9 mph - N/A   Clear
10:53 PM 50.0 °F 28.0 °F 43% 30.18 in 8.0 mi Calm Calm - N/A   Clear
11:53 PM 48.0 °F 25.0 °F 41% 30.17 in 10.0 mi ENE 3.5 mph - N/A   Clear